Temperature
26 27 27 28 29 29 29 29 29 29 30 29 29 29 29 27 26 26 25 23 22 21 20 19 18 18 17 17 17 17 17 17 17 17 17 17 17 17 17 17 17 17 17 17
26 27 28 29 28 28 28 28 29 29 29 29 29 29 29 27 26 25 25 23 23 22 20 19 18 17 17 17 17 17 17 17 17 17 17 17 17 17 17 17 17 17 17 17
27 28 29 28 27 27 28 28 29 29 29 29 28 29 28 27 26 25 24 23 23 22 21 19 18 17 17 17 17 17 17 17 17 17 17 17 17 16 16 16 17 17 17 17
27 28 27 27 28 28 28 29 29 28 28 29 28 28 29 28 27 26 25 24 23 22 21 19 18 17 17 17 17 17 17 17 17 17 17 17 17 16 17 17 17 17 17 16
27 28 27 27 28 28 28 28 28 28 28 29 29 28 29 28 27 27 26 24 23 22 21 20 19 18 17 17 16 16 16 17 17 17 17 17 16 17 17 16 16 16 16 16
28 28 28 28 29 29 28 28 28 28 29 28 28 28 28 29 28 27 26 24 23 22 21 19 19 18 17 17 16 16 16 16 16 16 16 17 16 16 16 16 16 16 16 16
27 28 28 29 28 28 28 28 27 27 27 27 28 28 28 29 28 27 26 25 23 22 21 19 19 18 17 17 16 16 16 16 16 16 16 16 16 16 17 16 16 16 16 16
26 27 28 28 28 28 28 28 27 26 27 28 27 28 29 28 27 26 25 24 23 22 21 20 19 18 17 17 16 16 16 16 16 16 16 16 16 16 16 16 16 16 16 16
27 27 28 29 29 29 28 28 29 28 28 27 28 28 29 28 27 26 25 24 23 22 21 20 19 18 17 17 16 16 16 16 16 16 16 16 16 16 16 16 16 16 16 16
28 27 28 28 28 28 29 29 28 27 26 26 27 28 28 28 27 26 26 25 24 22 21 20 19 18 18 17 17 16 16 16 16 16 16 16 16 16 16 16 16 16 16 16
28 27 27 27 27 28 27 28 28 28 27 26 26 27 28 28 27 27 26 25 24 23 22 21 20 19 18 17 17 16 16 16 16 16 16 16 16 16 16 16 16 16 16 16
27 27 27 27 28 28 28 28 28 27 26 27 27 27 28 27 27 26 26 24 24 23 22 21 20 19 18 17 17 17 16 16 16 16 16 16 16 16 16 16 16 16 16 16
26 26 25 26 26 26 27 27 27 27 27 27 27 27 27 27 27 26 25 24 23 22 22 21 20 19 18 18 17 17 17 17 16 16 16 16 16 16 16 16 16 16 16 16
26 26 26 26 26 27 26 27 27 27 27 27 27 27 27 27 26 25 24 24 23 22 21 21 20 19 18 18 17 17 17 17 17 16 16 16 16 16 16 16 16 16 16 16
25 26 26 26 27 27 27 26 26 26 27 27 27 27 27 26 25 24 23 23 23 22 21 20 20 19 19 18 18 17 17 17 17 17 16 16 16 16 16 16 16 16 16 16
24 25 25 25 26 26 26 26 26 26 26 26 26 26 26 25 24 23 22 22 22 21 21 20 19 19 19 18 18 18 17 17 17 17 17 17 16 16 16 16 16 16 16 16
24 24 24 25 25 25 24 25 26 26 26 26 26 25 25 24 23 22 21 21 21 21 20 19 19 19 18 18 18 18 18 17 17 17 17 17 16 17 17 16 16 16 16 16
23 23 24 24 24 23 25 25 25 24 25 25 25 24 24 23 21 20 19 19 19 19 19 19 18 18 18 18 18 18 18 17 17 17 17 17 17 17 17 16 16 16 16 16
22 22 23 23 23 24 23 23 23 23 23 23 23 23 22 21 21 19 17 17 17 17 17 17 18 18 18 18 18 18 17 17 17 17 17 17 17 17 17 16 17 17 16 16
21 21 22 22 22 22 23 22 21 22 21 21 21 21 21 21 22 20 16 16 16 16 16 16 17 17 17 17 17 17 17 17 17 17 17 17 17 17 17 17 17 17 16 16
21 21 21 21 22 22 21 21 21 21 20 19 19 19 19 19 18 16 15 15 15 15 15 16 16 16 16 16 17 17 17 16 16 16 16 16 16 17 17 16 16 16 16 16
21 21 20 21 21 21 20 20 20 19 18 18 17 18 17 16 15 15 14 14 14 14 15 15 15 15 15 16 16 16 16 16 16 16 16 16 16 16 16 16 15 15 15 15
21 20 20 20 19 18 18 17 16 16 16 16 16 16 16 15 15 14 14 14 13 13 14 14 14 14 14 14 15 15 15 15 15 15 15 15 15 15 15 15 15 15 14 14
19 19 19 18 18 17 16 16 15 15 15 15 15 15 15 14 14 13 13 13 13 13 13 13 13 13 13 14 14 14 14 14 14 14 14 14 14 14 14 14 14 14 14 14
19 18 18 18 17 16 15 14 14 14 14 14 14 14 13 13 13 12 12 12 12 12 12 12 12 12 12 13 13 13 13 14 14 14 13 13 14 13 13 13 13 13 13 13
18 17 17 17 16 16 14 13 13 13 13 13 13 12 12 12 11 11 11 11 11 11 11 11 12 12 12 12 12 12 13 13 13 13 13 13 13 13 13 13 12 12 12 12
Wind_Speed
13 13 15 14 13 9 6 8 9 6 3 6 8 8 5 5 7 8 8 8 9 9 10 11 12 12 13 14 16 16 16 16 14 12 11 10 10 9 8 8 10 11 10 11
12 17 15 10 9 10 10 11 10 5 3 5 7 8 4 5 7 7 8 8 9 9 9 10 12 12 14 15 16 16 17 16 15 12 11 9 9 9 8 8 10 11 10 10
17 9 11 12 12 12 12 11 9 6 4 6 7 9 6 5 6 7 7 8 8 9 10 11 12 13 14 15 16 15 16 16 16 14 11 9 8 7 8 9 9 10 11 10
15 11 10 13 14 13 11 8 8 8 8 6 5 8 5 5 6 7 8 8 8 8 10 10 11 13 14 15 15 15 15 15 16 15 14 14 12 11 10 9 8 9 10 10
11 12 13 14 13 12 8 4 7 8 9 9 7 8 3 4 5 6 7 8 8 8 9 10 11 12 14 14 15 15 15 15 15 15 15 14 12 10 9 9 9 9 9 9
11 8 10 12 10 10 6 6 6 8 9 10 6 7 4 1 2 3 5 7 7 8 8 9 9 11 12 13 14 15 15 15 15 15 15 14 14 12 12 11 10 9 8 8
13 13 11 9 10 10 10 10 8 8 8 7 3 6 4 2 0 2 4 6 7 7 8 8 10 11 12 13 13 14 15 15 15 15 14 14 14 14 14 13 12 10 9 9
12 13 13 11 12 9 12 13 10 7 7 5 4 5 1 2 2 1 4 6 7 7 7 8 10 11 11 13 13 14 15 15 15 15 14 13 14 11 11 12 11 11 9 9
10 9 9 9 9 10 10 12 10 10 9 8 4 3 3 3 3 3 5 7 7 8 8 8 9 11 12 13 14 14 15 15 15 15 14 13 13 12 12 12 12 11 9 9
7 7 8 7 7 8 10 9 7 9 8 8 7 5 3 1 1 4 5 7 8 8 9 9 10 11 12 12 12 14 15 15 15 14 14 13 13 13 12 12 12 11 11 10
9 8 8 9 10 11 9 10 9 8 8 9 7 2 2 2 1 2 5 6 8 9 10 10 10 11 12 12 12 13 13 14 14 15 14 13 13 13 13 12 13 12 11 11
10 8 9 9 4 3 8 9 10 9 8 8 9 3 6 3 2 2 4 6 7 8 9 10 11 11 12 12 13 13 13 14 14 14 14 13 13 14 14 14 13 13 12 12
8 7 9 9 9 8 9 9 9 9 8 9 10 3 7 4 3 2 3 5 6 7 9 10 11 11 12 12 13 14 14 15 15 15 15 14 14 14 14 13 13 13 12 12
6 8 11 11 6 8 9 9 10 11 11 11 10 7 2 1 1 1 2 4 6 8 9 10 10 11 11 12 13 14 14 15 15 15 15 15 14 14 14 13 13 13 13 13
6 9 10 9 6 7 9 10 11 12 12 12 9 7 3 2 2 1 1 3 5 7 8 9 10 10 11 12 12 13 14 15 15 15 15 15 14 14 14 14 14 13 13 13
4 6 8 9 8 8 10 11 11 12 11 11 10 7 1 2 2 2 1 2 4 5 6 8 9 10 11 12 13 13 14 15 15 16 16 15 14 15 14 14 14 13 13 13
5 5 7 9 7 8 12 10 11 10 9 10 10 5 1 1 2 3 2 1 1 2 4 6 7 8 9 11 12 13 14 14 15 15 15 14 14 15 15 15 14 14 14 13
5 6 6 7 7 12 2 1 3 5 5 5 4 3 1 1 2 4 4 3 2 2 1 2 4 5 7 8 9 10 12 13 13 13 13 13 14 14 13 13 13 13 12 11
4 6 6 7 10 8 3 1 2 4 3 2 2 1 0 2 4 5 7 6 4 3 2 1 1 3 5 6 8 9 10 11 12 12 12 12 13 12 12 12 11 11 11 11
4 6 7 8 9 8 2 3 2 4 4 2 3 2 0 2 4 3 7 7 6 6 5 3 2 2 3 5 7 9 9 9 10 10 10 10 10 10 10 10 10 9 9 10
7 6 9 9 8 3 3 2 3 6 1 4 3 3 1 1 3 4 5 6 7 7 7 6 6 5 4 3 6 7 7 7 7 7 7 7 8 8 8 7 7 7 8 8
5 5 6 6 7 3 4 1 1 3 3 2 3 2 3 5 7 6 6 7 7 8 9 9 8 8 7 6 6 7 5 5 5 6 6 5 5 5 5 5 5 5 6 6
2 1 1 2 1 4 4 3 3 2 2 2 1 1 4 6 7 7 8 8 8 9 9 9 10 10 9 8 8 8 6 5 6 7 6 6 5 4 3 4 4 4 3 3
2 1 1 1 1 2 4 4 4 4 2 2 1 2 6 8 8 8 8 9 9 10 10 10 12 12 11 10 9 9 7 7 8 8 7 6 5 5 4 3 3 3 3 3
1 1 1 2 2 2 4 6 6 5 5 6 6 7 9 11 10 10 10 10 10 10 11 11 11 11 11 10 10 9 8 8 8 8 6 6 6 6 5 5 4 3 3 2
1 1 2 1 2 2 3 4 6 7 8 9 11 12 12 13 13 13 12 11 11 12 12 12 12 12 11 10 10 9 8 8 7 7 5 5 5 5 5 6 6 9 7 9
Wind_Direction
192 210 216 216 224 253 259 256 253 259 258 258 258 267 251 211 214 212 206 201 198 200 193 187 187 185 184 184 182 181 181 178 175 176 178 180 182 180 182 186 181 182 184 182
194 219 224 226 226 238 242 249 253 243 206 257 268 267 248 217 218 217 211 208 207 200 192 189 188 187 187 186 186 184 183 179 180 180 180 185 181 182 183 185 178 183 186 186
210 214 212 217 220 228 237 245 254 269 260 233 264 249 211 207 211 211 212 212 213 207 201 193 193 193 192 190 189 189 185 181 183 181 177 174 169 175 182 184 180 183 187 191
224 219 209 215 221 227 235 244 262 262 256 247 250 278 210 205 214 213 211 211 213 207 202 197 196 194 193 192 188 187 185 185 183 181 181 179 183 186 187 183 178 179 185 189
212 212 214 222 225 226 243 254 255 252 251 261 237 270 256 190 232 220 206 205 206 200 199 199 195 192 190 188 186 185 183 183 182 184 185 186 190 189 179 175 171 178 183 189
225 209 223 228 227 224 219 217 226 235 246 249 251 269 278 232 263 221 194 195 197 195 194 194 190 186 185 183 182 180 178 181 182 185 186 189 188 182 177 176 174 181 182 188
217 216 214 220 213 202 212 224 226 225 227 243 205 261 284 7 356 235 201 193 188 185 184 181 180 179 178 176 176 175 174 179 182 184 187 190 188 184 182 181 181 184 186 190
207 208 202 207 220 211 213 229 243 252 251 245 195 252 292 97 113 165 188 183 178 177 175 175 176 175 173 171 171 172 175 178 180 183 187 189 187 187 188 188 184 188 193 192
210 204 184 203 219 230 215 229 250 260 265 268 246 237 220 171 179 170 173 177 178 175 170 172 172 171 171 170 171 174 177 176 177 181 181 185 188 190 187 185 188 189 191 185
221 214 189 188 200 217 242 230 226 244 258 259 252 243 267 211 172 171 177 180 177 174 172 169 170 169 170 171 172 175 174 173 175 176 179 183 187 187 184 186 190 188 186 184
223 223 194 193 211 205 202 218 234 243 254 261 263 245 73 30 60 172 175 176 175 177 175 171 170 170 169 168 168 171 173 173 175 179 181 183 185 186 187 190 190 189 187 185
212 227 224 211 202 257 230 233 224 238 241 251 269 262 89 76 83 140 155 161 167 174 173 172 170 170 171 171 171 174 177 177 179 180 181 184 185 185 187 190 191 190 189 190
191 218 221 207 200 203 221 225 233 243 252 250 256 240 114 97 85 112 142 157 164 171 173 172 173 175 176 176 178 179 181 181 181 181 183 185 186 188 191 191 191 190 191 194
207 220 237 240 234 207 216 221 225 234 244 249 250 259 185 72 61 92 131 164 169 174 178 178 179 182 181 181 182 184 185 184 183 183 186 188 190 191 193 194 192 193 195 197
217 226 235 253 255 239 237 233 228 235 252 265 268 266 286 346 11 25 154 172 172 176 182 183 184 186 186 186 185 187 187 188 187 187 191 191 193 193 195 196 195 196 199 202
219 234 233 239 241 241 245 242 239 242 250 255 259 264 321 25 42 48 63 182 185 184 188 192 191 190 192 191 190 190 190 189 190 192 194 193 195 195 196 198 199 199 201 205
205 219 236 242 234 242 240 238 242 245 247 253 259 266 292 307 42 28 20 12 219 200 198 201 201 199 198 197 194 194 193 189 192 196 197 195 196 199 200 201 201 203 204 205
224 227 234 242 231 240 230 16 263 254 260 270 271 278 280 12 80 60 42 29 24 2 274 218 210 203 201 197 193 193 190 188 190 194 196 195 197 201 202 203 205 206 206 206
220 223 236 235 236 239 200 204 267 254 245 355 321 298 280 136 137 91 49 36 31 23 7 324 230 201 189 189 186 182 185 184 186 189 192 194 194 196 198 200 202 202 203 206
190 219 232 234 239 241 152 76 325 257 221 46 25 11 303 211 228 87 48 40 39 36 37 41 65 115 147 174 175 171 176 179 185 188 189 188 187 190 193 198 200 200 202 207
194 211 229 238 242 234 60 17 253 236 163 39 25 19 29 40 43 75 61 51 47 48 49 53 61 69 81 132 156 160 162 170 175 172 170 172 175 180 185 190 195 197 198 201
215 216 222 233 237 217 53 10 304 5 18 11 7 20 65 90 97 91 77 67 58 56 56 58 63 61 57 73 109 119 123 134 140 142 143 147 156 167 169 171 177 186 195 193
234 311 281 280 336 51 28 13 0 338 318 331 326 21 114 113 105 96 86 77 69 63 63 64 69 67 60 60 76 93 95 111 121 122 122 122 125 130 134 142 153 161 175 194
145 359 224 208 122 51 36 33 35 36 42 38 74 126 127 115 107 97 89 80 74 71 70 69 70 69 63 58 63 70 79 89 100 104 107 109 112 113 112 117 131 142 157 178
74 220 215 185 129 78 46 45 50 54 66 79 84 95 108 108 103 98 91 83 78 75 71 69 70 68 66 62 60 60 69 84 90 93 96 103 106 105 101 91 66 81 75 54
214 263 263 193 120 110 80 66 73 80 84 90 94 93 94 97 98 93 86 80 77 75 72 69 67 68 66 65 64 61 64 76 86 89 88 91 94 93 98 103 93 60 66 70
Height
1480 1480 1476 1471 1470 1469 1471 1472 1471 1467 1466 1468 1466 1465 1464 1469 1472 1474 1476 1479 1481 1484 1487 1489 1490 1493 1495 1498 1502 1506 1511 1516 1521 1526 1531 1536 1540 1544 1548 1552 1555 1557 1560 1562
1477 1475 1468 1468 1471 1472 1473 1474 1470 1465 1466 1467 1465 1464 1462 1466 1469 1471 1474 1476 1479 1482 1484 1486 1488 1490 1492 1494 1498 1503 1507 1513 1518 1523 1528 1533 1538 1542 1546 1550 1552 1555 1558 1560
1469 1465 1465 1469 1471 1473 1470 1469 1467 1467 1464 1464 1466 1463 1461 1463 1467 1470 1472 1474 1476 1478 1481 1483 1485 1487 1489 1491 1495 1499 1503 1509 1514 1520 1525 1530 1535 1539 1543 1547 1550 1553 1556 1558
1464 1461 1466 1468 1468 1468 1469 1462 1464 1465 1467 1463 1465 1468 1458 1458 1462 1465 1469 1471 1473 1476 1478 1480 1482 1483 1485 1488 1491 1495 1500 1505 1510 1516 1521 1526 1531 1535 1540 1544 1547 1550 1553 1556
1461 1460 1463 1465 1462 1462 1462 1462 1463 1462 1463 1464 1461 1466 1456 1455 1459 1460 1463 1468 1471 1473 1475 1477 1479 1480 1483 1485 1488 1492 1497 1501 1507 1512 1517 1523 1528 1533 1538 1542 1545 1548 1551 1554
1454 1457 1458 1457 1456 1458 1460 1463 1463 1461 1459 1471 1462 1466 1461 1451 1455 1455 1460 1465 1468 1471 1473 1475 1476 1478 1481 1483 1486 1489 1493 1498 1503 1509 1514 1520 1525 1530 1534 1538 1542 1545 1549 1551
1457 1454 1454 1455 1456 1457 1459 1465 1472 1474 1473 1469 1458 1464 1458 1449 1452 1455 1458 1462 1466 1469 1471 1472 1474 1476 1478 1480 1483 1486 1491 1496 1501 1506 1512 1517 1522 1527 1531 1535 1539 1543 1547 1549
1458 1458 1450 1451 1452 1454 1455 1457 1470 1480 1475 1463 1459 1462 1451 1449 1453 1456 1458 1461 1464 1467 1469 1471 1473 1475 1477 1479 1481 1485 1489 1494 1498 1504 1509 1515 1520 1525 1529 1533 1537 1541 1544 1547
1450 1452 1445 1447 1448 1449 1453 1452 1447 1458 1459 1465 1457 1452 1448 1449 1452 1455 1457 1460 1462 1465 1468 1470 1472 1474 1476 1479 1481 1484 1488 1492 1497 1502 1508 1513 1518 1523 1527 1530 1535 1539 1542 1544
1442 1451 1445 1446 1448 1449 1446 1445 1453 1459 1473 1475 1463 1457 1453 1448 1449 1452 1455 1458 1461 1464 1467 1470 1472 1474 1477 1479 1481 1484 1487 1491 1496 1501 1506 1511 1516 1520 1524 1528 1532 1536 1539 1542
1441 1449 1448 1447 1448 1446 1450 1451 1450 1451 1455 1467 1470 1459 1443 1446 1448 1450 1453 1456 1459 1463 1466 1469 1472 1474 1477 1479 1482 1484 1488 1492 1496 1501 1505 1510 1514 1518 1522 1526 1530 1533 1536 1539
1441 1443 1447 1444 1442 1442 1443 1444 1448 1459 1460 1457 1459 1456 1442 1446 1448 1450 1452 1456 1459 1462 1465 1468 1471 1474 1477 1479 1482 1485 1488 1492 1495 1500 1504 1508 1512 1516 1520 1524 1527 1531 1534 1537
1441 1446 1454 1453 1451 1447 1445 1443 1444 1447 1451 1454 1458 1455 1443 1446 1449 1451 1453 1456 1459 1462 1464 1467 1470 1473 1476 1479 1482 1485 1488 1491 1495 1499 1502 1507 1510 1514 1518 1521 1525 1528 1531 1534
1441 1443 1446 1450 1444 1440 1445 1445 1445 1448 1451 1450 1448 1446 1443 1445 1449 1452 1454 1456 1458 1461 1464 1466 1469 1472 1475 1477 1480 1483 1487 1490 1494 1497 1501 1505 1508 1512 1515 1519 1522 1525 1528 1531
1440 1441 1439 1437 1436 1437 1440 1442 1443 1445 1443 1446 1443 1442 1443 1446 1450 1453 1455 1456 1458 1460 1462 1465 1467 1470 1473 1476 1478 1481 1484 1488 1492 1495 1498 1502 1506 1509 1513 1516 1519 1522 1525 1528
1441 1441 1440 1442 1438 1439 1442 1440 1440 1441 1441 1442 1442 1444 1445 1449 1452 1455 1456 1457 1458 1459 1462 1464 1466 1468 1470 1473 1476 1479 1482 1485 1489 1492 1496 1499 1503 1506 1509 1513 1516 1519 1521 1524
1439 1443 1446 1443 1439 1442 1446 1439 1439 1439 1438 1440 1443 1445 1447 1449 1453 1456 1457 1458 1458 1459 1461 1462 1464 1466 1467 1470 1472 1475 1479 1482 1486 1489 1493 1496 1499 1503 1506 1509 1512 1514 1517 1519
1443 1444 1443 1442 1447 1457 1441 1437 1438 1440 1440 1440 1442 1445 1448 1451 1455 1457 1458 1459 1459 1459 1460 1461 1462 1463 1465 1467 1470 1472 1476 1479 1482 1486 1489 1492 1496 1499 1502 1505 1507 1510 1512 1514
1443 1444 1443 1444 1446 1442 1442 1441 1442 1444 1445 1446 1447 1448 1450 1452 1454 1457 1459 1460 1459 1459 1459 1459 1460 1461 1463 1465 1467 1470 1473 1476 1479 1482 1485 1488 1492 1495 1498 1500 1502 1505 1508 1510
1444 1443 1444 1445 1449 1449 1443 1443 1445 1447 1450 1450 1450 1451 1451 1452 1450 1456 1461 1460 1460 1459 1458 1458 1459 1460 1461 1463 1465 1467 1470 1473 1476 1479 1481 1485 1487 1490 1493 1496 1499 1501 1503 1505
1443 1445 1445 1445 1446 1440 1443 1446 1446 1452 1452 1453 1453 1453 1453 1454 1457 1461 1461 1461 1460 1460 1459 1458 1459 1459 1460 1462 1464 1466 1468 1471 1474 1477 1479 1482 1484 1487 1489 1492 1495 1497 1499 1501
1441 1442 1445 1445 1449 1449 1447 1446 1448 1452 1453 1454 1455 1456 1456 1458 1459 1461 1462 1462 1461 1461 1460 1459 1459 1460 1461 1462 1463 1465 1467 1470 1473 1475 1477 1479 1482 1485 1487 1489 1491 1493 1495 1497
1440 1443 1441 1446 1449 1450 1451 1452 1454 1454 1454 1455 1455 1457 1457 1458 1460 1461 1462 1463 1463 1463 1462 1462 1462 1462 1463 1463 1464 1466 1468 1470 1472 1474 1476 1479 1481 1483 1485 1487 1489 1491 1492 1495
1443 1446 1446 1448 1449 1452 1453 1454 1454 1454 1454 1455 1455 1456 1458 1459 1461 1463 1464 1464 1465 1465 1465 1465 1465 1464 1465 1466 1467 1468 1469 1471 1473 1474 1477 1479 1481 1483 1484 1486 1488 1489 1491 1492
1445 1446 1446 1449 1452 1453 1455 1455 1455 1455 1455 1455 1456 1457 1459 1460 1462 1464 1466 1467 1467 1468 1468 1468 1468 1468 1469 1470 1470 1471 1472 1473 1475 1476 1478 1480 1481 1483 1485 1486 1487 1488 1490 1491
1448 1449 1449 1449 1453 1454 1457 1457 1457 1456 1457 1458 1458 1460 1461 1462 1465 1467 1469 1470 1471 1471 1472 1472 1473 1473 1474 1474 1474 1475 1475 1476 1477 1479 1481 1482 1483 1484 1485 1486 1487 1488 1490 1490